TimeEDT,TemperatureF,Dew PointF,Humidity,Sea Level PressureIn,VisibilityMPH,Wind Direction,Wind SpeedMPH,Gust SpeedMPH,PrecipitationIn,Events,Conditions,WindDirDegrees,DateUTC
12:53 AM,43.0,36.0,76,30.06,10.0,Calm,Calm,-,N/A,,Clear,0,2013-04-14 04:53:00
1:53 AM,39.0,36.0,89,30.06,10.0,Calm,Calm,-,N/A,,Clear,0,2013-04-14 05:53:00
2:53 AM,37.9,37.0,97,30.06,10.0,Calm,Calm,-,N/A,,Clear,0,2013-04-14 06:53:00
3:53 AM,36.0,35.1,97,30.07,9.0,Calm,Calm,-,N/A,,Clear,0,2013-04-14 07:53:00
4:53 AM,36.0,36.0,100,30.08,9.0,Calm,Calm,-,N/A,,Partly Cloudy,0,2013-04-14 08:53:00
5:53 AM,36.0,35.1,97,30.08,8.0,ENE,3.5,-,N/A,,Mostly Cloudy,60,2013-04-14 09:53:00
6:53 AM,39.9,36.0,86,30.06,10.0,Calm,Calm,-,N/A,,Mostly Cloudy,0,2013-04-14 10:53:00
7:53 AM,41.0,37.9,89,30.09,10.0,Calm,Calm,-,N/A,,Overcast,0,2013-04-14 11:53:00
8:53 AM,45.0,39.0,80,30.07,10.0,NE,3.5,-,N/A,,Partly Cloudy,50,2013-04-14 12:53:00
9:53 AM,52.0,39.9,63,30.05,10.0,Variable,4.6,-,N/A,,Clear,0,2013-04-14 13:53:00
10:53 AM,55.9,41.0,57,30.04,10.0,East,4.6,-,N/A,,Clear,90,2013-04-14 14:53:00
11:53 AM,60.1,42.1,51,30.01,10.0,SSE,9.2,-,N/A,,Clear,160,2013-04-14 15:53:00
12:53 PM,63.0,41.0,45,29.99,10.0,SE,9.2,-,N/A,,Clear,130,2013-04-14 16:53:00
1:53 PM,66.9,43.0,42,29.97,10.0,SSE,6.9,-,N/A,,Clear,150,2013-04-14 17:53:00
2:53 PM,69.1,42.1,38,29.94,10.0,SE,4.6,-,N/A,,Clear,130,2013-04-14 18:53:00
3:53 PM,71.1,44.1,38,29.93,10.0,South,9.2,-,N/A,,Clear,170,2013-04-14 19:53:00
4:53 PM,71.1,43.0,36,29.90,10.0,South,8.1,-,N/A,,Clear,190,2013-04-14 20:53:00
5:53 PM,71.1,41.0,34,29.89,10.0,ESE,9.2,-,N/A,,Clear,120,2013-04-14 21:53:00
6:53 PM,70.0,39.9,33,29.88,10.0,SE,8.1,-,N/A,,Clear,140,2013-04-14 22:53:00
7:53 PM,68.0,39.9,36,29.89,10.0,Calm,Calm,-,N/A,,Clear,0,2013-04-14 23:53:00
8:53 PM,62.1,45.0,53,29.89,10.0,Calm,Calm,-,N/A,,Clear,0,2013-04-15 00:53:00
9:53 PM,57.9,48.0,70,29.90,10.0,Calm,Calm,-,N/A,,Clear,0,2013-04-15 01:53:00
10:53 PM,54.0,46.9,77,29.92,10.0,SW,9.2,-,N/A,,Clear,230,2013-04-15 02:53:00
11:53 PM,57.9,45.0,62,29.93,10.0,Calm,Calm,-,N/A,,Clear,0,2013-04-15 03:53:00